UAE370 OMDB-VTBS

Flight info

Callsign UAE370
Flight time N/A
Altitude 35000
Route IVURO M677 LALDO B505 NADSO B524 ALPOR M504 TELEM A791 EKIGA/N0495F370 A791 BPL T1 BBS N895 BETNO P646 TARED WILLA1C
Aircraft B77W/H-SDE1E2E3FGHIJ2J3J4J5M1RWXY/LB1D1

Departure

Time 2026-05-08 06:46
Airport Dubai International Airport (OMDB)

Arrival

Time N/A
Airport Suvarnabhumi Airport (VTBS)
Time Latitude Longitude Altitude Speed Heading
2026-05-08 05:55 25.24532 55.37047 26 ft 0 kts 211°
2026-05-08 06:30 25.24532 55.37048 26 ft 0 kts 211°
2026-05-08 06:30 25.24541 55.37053 25 ft 2 kts 208°
2026-05-08 06:31 25.24555 55.37062 25 ft 2 kts 208°
2026-05-08 06:31 25.24570 55.37070 24 ft 2 kts 205°
2026-05-08 06:31 25.24585 55.37077 24 ft 2 kts 198°
2026-05-08 06:31 25.24601 55.37082 24 ft 2 kts 185°
2026-05-08 06:32 25.24618 55.37081 25 ft 2 kts 148°
2026-05-08 06:32 25.24628 55.37070 25 ft 1 kts 121°
2026-05-08 06:32 25.24629 55.37068 24 ft 0 kts 121°
2026-05-08 06:35 25.24628 55.37069 25 ft 1 kts 121°
2026-05-08 06:35 25.24620 55.37085 25 ft 4 kts 121°
2026-05-08 06:35 25.24601 55.37120 41 ft 7 kts 121°
2026-05-08 06:36 25.24571 55.37173 27 ft 9 kts 121°
2026-05-08 06:36 25.24537 55.37234 26 ft 9 kts 122°
2026-05-08 06:36 25.24503 55.37294 26 ft 9 kts 122°
2026-05-08 06:36 25.24468 55.37355 26 ft 9 kts 122°
2026-05-08 06:37 25.24439 55.37417 26 ft 9 kts 107°
2026-05-08 06:37 25.24429 55.37489 27 ft 9 kts 94°
2026-05-08 06:37 25.24428 55.37560 27 ft 9 kts 91°
2026-05-08 06:37 25.24413 55.37630 27 ft 9 kts 112°
2026-05-08 06:38 25.24381 55.37694 27 ft 9 kts 121°
2026-05-08 06:38 25.24346 55.37757 28 ft 9 kts 122°
2026-05-08 06:38 25.24312 55.37817 28 ft 9 kts 122°
2026-05-08 06:38 25.24277 55.37877 28 ft 9 kts 122°
2026-05-08 06:39 25.24243 55.37938 28 ft 9 kts 122°
2026-05-08 06:39 25.24212 55.37992 28 ft 8 kts 122°
2026-05-08 06:39 25.24214 55.38049 29 ft 8 kts 48°
2026-05-08 06:39 25.24261 55.38086 32 ft 9 kts 32°
2026-05-08 06:40 25.24320 55.38124 36 ft 10 kts 32°
2026-05-08 06:40 25.24379 55.38167 36 ft 10 kts 33°
2026-05-08 06:40 25.24447 55.38215 30 ft 11 kts 32°
2026-05-08 06:40 25.24503 55.38249 28 ft 2 kts 30°
2026-05-08 06:41 25.24521 55.38261 28 ft 4 kts 30°
2026-05-08 06:41 25.24523 55.38263 28 ft 0 kts 30°
2026-05-08 06:42 25.24527 55.38265 28 ft 2 kts 30°
2026-05-08 06:43 25.24553 55.38282 28 ft 7 kts 30°
2026-05-08 06:43 25.24587 55.38304 27 ft 0 kts 30°
2026-05-08 06:44 25.24594 55.38308 27 ft 5 kts 30°
2026-05-08 06:44 25.24662 55.38300 27 ft 10 kts 310°
2026-05-08 06:44 25.24681 55.38261 28 ft 0 kts 298°
2026-05-08 06:45 25.24751 55.38126 34 ft 53 kts 300°
2026-05-08 06:45 25.25071 55.37551 35 ft 120 kts 301°
2026-05-08 06:45 25.25609 55.36581 35 ft 172 kts 301°
2026-05-08 06:46 25.26265 55.35397 445 ft 180 kts 301°
2026-05-08 06:46 25.26931 55.34216 951 ft 184 kts 301°
2026-05-08 06:46 25.27602 55.33010 1623 ft 182 kts 300°
2026-05-08 06:46 25.28286 55.31775 2157 ft 197 kts 299°
2026-05-08 06:47 25.29065 55.30420 2454 ft 218 kts 308°
2026-05-08 06:47 25.30347 55.29457 2744 ft 245 kts 344°
2026-05-08 06:47 25.32122 55.29401 3075 ft 265 kts
2026-05-08 06:47 25.33986 55.29503 3802 ft 267 kts 359°
2026-05-08 06:48 25.35855 55.29584 4628 ft 270 kts 359°
2026-05-08 06:48 25.37747 55.29647 5316 ft 274 kts
2026-05-08 06:48 25.39619 55.30064 5858 ft 283 kts 26°
2026-05-08 06:48 25.41143 55.31467 6502 ft 287 kts 49°
2026-05-08 06:49 25.42384 55.33181 7022 ft 292 kts 50°
2026-05-08 06:49 25.43659 55.34938 7757 ft 294 kts 50°
2026-05-08 06:49 25.44940 55.36707 8465 ft 296 kts 51°
2026-05-08 06:49 25.46236 55.38489 9169 ft 298 kts 51°
2026-05-08 06:50 25.47545 55.40281 9830 ft 301 kts 52°
2026-05-08 06:50 25.48865 55.42100 10441 ft 306 kts 53°
2026-05-08 06:50 25.50215 55.44033 10667 ft 328 kts 54°
2026-05-08 06:50 25.51640 55.46122 10828 ft 348 kts 58°
2026-05-08 06:51 25.52600 55.48587 10938 ft 366 kts 81°
2026-05-08 06:51 25.52539 55.51423 11270 ft 376 kts 106°
2026-05-08 06:51 25.51471 55.54065 11924 ft 377 kts 123°
2026-05-08 06:51 25.50049 55.56519 12665 ft 382 kts 124°
2026-05-08 06:52 25.48592 55.58978 13552 ft 383 kts 124°
2026-05-08 06:52 25.47136 55.61459 14325 ft 386 kts 124°
2026-05-08 06:52 25.45677 55.63988 14952 ft 393 kts 123°
2026-05-08 06:52 25.44220 55.66538 15591 ft 399 kts 123°
2026-05-08 06:53 25.42772 55.69174 16224 ft 405 kts 118°
2026-05-08 06:53 25.41866 55.72125 16691 ft 409 kts 102°
2026-05-08 06:53 25.41322 55.75253 17235 ft 417 kts 102°
2026-05-08 06:53 25.40717 55.78398 18000 ft 419 kts 103°
2026-05-08 06:54 25.40054 55.81561 18571 ft 425 kts 104°
2026-05-08 06:54 25.39365 55.84750 19118 ft 430 kts 104°
2026-05-08 06:54 25.38666 55.87979 19694 ft 434 kts 104°
2026-05-08 06:54 25.37966 55.91239 20255 ft 439 kts 104°
2026-05-08 06:55 25.37260 55.94532 20780 ft 444 kts 104°
2026-05-08 06:55 25.36545 55.97880 21314 ft 448 kts 105°
2026-05-08 06:55 25.35835 56.01208 21830 ft 453 kts 105°
2026-05-08 06:55 25.35110 56.04608 22359 ft 457 kts 105°
2026-05-08 06:56 25.34376 56.08043 22864 ft 461 kts 105°
2026-05-08 06:56 25.33631 56.11517 23346 ft 466 kts 105°
2026-05-08 06:56 25.32883 56.15014 23765 ft 470 kts 104°
2026-05-08 06:56 25.32320 56.18586 24158 ft 475 kts 98°
2026-05-08 06:57 25.32028 56.22234 24557 ft 479 kts 95°
2026-05-08 06:57 25.31825 56.25870 24954 ft 482 kts 95°
2026-05-08 06:57 25.31602 56.29584 25346 ft 486 kts 96°
2026-05-08 06:57 25.31324 56.33322 25751 ft 489 kts 96°
2026-05-08 06:58 25.31009 56.37071 26145 ft 492 kts 97°
2026-05-08 06:58 25.30725 56.40856 26510 ft 497 kts 94°
2026-05-08 06:58 25.30595 56.44689 26857 ft 501 kts 92°
2026-05-08 06:58 25.30516 56.48546 27231 ft 504 kts 92°
2026-05-08 06:59 25.30426 56.52420 27587 ft 507 kts 93°
2026-05-08 06:59 25.30206 56.56326 27918 ft 509 kts 98°
2026-05-08 06:59 25.29610 56.60132 28244 ft 511 kts 104°
2026-05-08 06:59 25.28683 56.63969 28572 ft 512 kts 109°
2026-05-08 07:00 25.27449 56.67614 28852 ft 514 kts 114°
2026-05-08 07:00 25.26050 56.71261 29147 ft 516 kts 115°
2026-05-08 07:00 25.24628 56.74909 29434 ft 519 kts 115°
2026-05-08 07:00 25.23200 56.78570 29723 ft 521 kts 115°
2026-05-08 07:01 25.21772 56.82259 30054 ft 522 kts 115°
2026-05-08 07:01 25.20359 56.85942 30433 ft 520 kts 115°
2026-05-08 07:01 25.18961 56.89609 30834 ft 518 kts 115°
2026-05-08 07:01 25.17581 56.93239 31246 ft 516 kts 115°
2026-05-08 07:02 25.16212 56.96841 31651 ft 515 kts 115°
2026-05-08 07:02 25.14827 57.00483 32022 ft 513 kts 115°
2026-05-08 07:02 25.13449 57.04102 32407 ft 512 kts 115°
2026-05-08 07:02 25.12132 57.07554 32748 ft 511 kts 115°
2026-05-08 07:03 25.10775 57.11107 33118 ft 510 kts 115°
2026-05-08 07:03 25.09416 57.14662 33483 ft 509 kts 115°
2026-05-08 07:03 25.08011 57.18334 33841 ft 508 kts 115°
2026-05-08 07:03 25.06643 57.21904 34144 ft 507 kts 115°
2026-05-08 07:04 25.05267 57.25493 34433 ft 506 kts 115°
2026-05-08 07:04 25.03902 57.29051 34715 ft 506 kts 115°
2026-05-08 07:04 25.01151 57.36211 34803 ft 510 kts 115°
2026-05-08 07:05 24.98398 57.43369 34808 ft 504 kts 115°
2026-05-08 07:05 24.95670 57.50448 34814 ft 502 kts 115°
2026-05-08 07:06 24.92938 57.57522 34815 ft 502 kts 115°
2026-05-08 07:06 24.90213 57.64570 34811 ft 502 kts 115°
2026-05-08 07:07 24.87470 57.71653 34812 ft 503 kts 115°
2026-05-08 07:07 24.84752 57.78659 34813 ft 504 kts 115°
2026-05-08 07:08 24.82461 57.85966 34810 ft 508 kts 105°
2026-05-08 07:08 24.80952 57.93523 34808 ft 509 kts 104°
2026-05-08 07:09 24.79464 58.01135 34809 ft 509 kts 104°
2026-05-08 07:09 24.77933 58.08746 34802 ft 510 kts 104°
2026-05-08 07:10 24.76372 58.16362 34798 ft 510 kts 104°
2026-05-08 07:10 24.74818 58.23905 34797 ft 509 kts 104°
2026-05-08 07:11 24.73249 58.31509 34793 ft 509 kts 104°
2026-05-08 07:11 24.71680 58.39099 34798 ft 509 kts 104°
2026-05-08 07:12 24.70107 58.46695 34795 ft 509 kts 104°
2026-05-08 07:12 24.68542 58.54230 34794 ft 509 kts 104°
2026-05-08 07:13 24.66962 58.61814 34793 ft 509 kts 104°
2026-05-08 07:13 24.65381 58.69383 34788 ft 509 kts 104°
2026-05-08 07:14 24.63794 58.76964 34789 ft 509 kts 104°
2026-05-08 07:14 24.62213 58.84493 34787 ft 508 kts 104°
2026-05-08 07:15 24.60622 58.92053 34781 ft 508 kts 104°
2026-05-08 07:15 24.59026 58.99612 34783 ft 508 kts 104°
2026-05-08 07:16 24.57423 59.07190 34783 ft 509 kts 104°
2026-05-08 07:16 24.55817 59.14765 34777 ft 509 kts 104°
2026-05-08 07:17 24.54223 59.22261 34775 ft 509 kts 104°
2026-05-08 07:17 24.52613 59.29834 34775 ft 509 kts 104°
2026-05-08 07:18 24.51004 59.37401 34777 ft 508 kts 104°
2026-05-08 07:18 24.49395 59.44953 34769 ft 509 kts 104°
2026-05-08 07:19 24.47790 59.52459 34772 ft 509 kts 104°
2026-05-08 07:19 24.46169 59.60026 34774 ft 509 kts 104°
2026-05-08 07:20 24.44545 59.67582 34767 ft 509 kts 104°
2026-05-08 07:20 24.42920 59.75127 34767 ft 509 kts 104°
2026-05-08 07:21 24.41299 59.82635 34768 ft 509 kts 104°
2026-05-08 07:21 24.39664 59.90186 34766 ft 509 kts 104°
2026-05-08 07:22 24.38066 59.97551 34764 ft 509 kts 104°
2026-05-08 07:22 24.36433 60.05061 34764 ft 509 kts 104°
2026-05-08 07:23 24.34784 60.12612 34766 ft 509 kts 104°
2026-05-08 07:23 24.33135 60.20114 34761 ft 509 kts 104°
2026-05-08 07:24 24.31475 60.27646 34762 ft 509 kts 104°
2026-05-08 07:24 24.29808 60.35192 34760 ft 509 kts 104°
2026-05-08 07:25 24.28152 60.42678 34762 ft 509 kts 104°
2026-05-08 07:26 24.25638 60.54004 34765 ft 509 kts 104°
2026-05-08 07:26 24.23960 60.61542 34764 ft 509 kts 104°
2026-05-08 07:27 24.22298 60.68994 34767 ft 508 kts 104°
2026-05-08 07:27 24.20612 60.76529 34769 ft 508 kts 104°
2026-05-08 07:28 24.18928 60.84046 34767 ft 508 kts 104°
2026-05-08 07:28 24.17246 60.91537 34772 ft 508 kts 104°
2026-05-08 07:29 24.15557 60.99045 34771 ft 507 kts 104°
2026-05-08 07:29 24.13879 61.06487 34772 ft 507 kts 104°
2026-05-08 07:30 24.12181 61.13995 34776 ft 507 kts 104°
2026-05-08 07:30 24.10482 61.21495 34779 ft 507 kts 104°
2026-05-08 07:31 24.08784 61.28973 34777 ft 507 kts 104°
2026-05-08 07:32 24.07084 61.43863 34786 ft 507 kts 93°
2026-05-08 07:32 24.06690 61.51544 34779 ft 508 kts 94°
2026-05-08 07:33 24.06261 61.59214 34776 ft 508 kts 94°
2026-05-08 07:33 24.05798 61.66932 34780 ft 508 kts 94°
2026-05-08 07:34 24.05324 61.74636 34779 ft 508 kts 94°
2026-05-08 07:34 24.04847 61.82350 34779 ft 508 kts 94°
2026-05-08 07:35 24.04369 61.90060 34775 ft 508 kts 94°
2026-05-08 07:35 24.03890 61.97725 34775 ft 508 kts 94°
2026-05-08 07:36 24.03404 62.05435 34778 ft 508 kts 94°
2026-05-08 07:36 24.02917 62.13110 34778 ft 508 kts 94°
2026-05-08 07:37 24.02426 62.20778 34780 ft 508 kts 94°
2026-05-08 07:37 24.01929 62.28487 34778 ft 508 kts 94°
2026-05-08 07:38 24.01427 62.36198 34783 ft 509 kts 94°
2026-05-08 07:38 24.00922 62.43913 34778 ft 509 kts 94°
2026-05-08 07:39 24.00412 62.51635 34779 ft 509 kts 94°
2026-05-08 07:39 23.99902 62.59305 34782 ft 509 kts 94°
2026-05-08 07:40 23.99384 62.67023 34777 ft 509 kts 94°
2026-05-08 07:40 23.98862 62.74753 34778 ft 509 kts 94°
2026-05-08 07:41 23.98337 62.82468 34781 ft 509 kts 94°
2026-05-08 07:41 23.97811 62.90148 34784 ft 510 kts 94°
2026-05-08 07:42 23.97278 62.97866 34782 ft 510 kts 94°
2026-05-08 07:42 23.96741 63.05584 34780 ft 510 kts 94°
2026-05-08 07:43 23.96200 63.13304 34784 ft 510 kts 94°
2026-05-08 07:43 23.95658 63.20989 34783 ft 510 kts 94°
2026-05-08 07:44 23.95108 63.28725 34788 ft 510 kts 94°
2026-05-08 07:44 23.94554 63.36452 34786 ft 510 kts 94°
2026-05-08 07:45 23.93997 63.44188 34784 ft 510 kts 94°
2026-05-08 07:45 23.93438 63.51889 34790 ft 511 kts 94°
2026-05-08 07:46 23.92872 63.59623 34789 ft 511 kts 94°
2026-05-08 07:46 23.92302 63.67369 34787 ft 511 kts 94°
2026-05-08 07:47 23.91730 63.75090 34789 ft 511 kts 94°
2026-05-08 07:47 23.91150 63.82861 34791 ft 511 kts 94°
2026-05-08 07:48 23.90572 63.90556 34790 ft 511 kts 94°
2026-05-08 07:48 23.89987 63.98291 34791 ft 511 kts 94°
2026-05-08 07:49 23.89397 64.06036 34791 ft 511 kts 94°
2026-05-08 07:49 23.88803 64.13782 34795 ft 512 kts 94°
2026-05-08 07:50 23.88322 64.20017 34792 ft 512 kts 94°
2026-05-08 07:50 23.87711 64.27899 34798 ft 512 kts 94°
2026-05-08 07:51 23.87115 64.35531 34800 ft 512 kts 94°
2026-05-08 07:51 23.86510 64.43236 34799 ft 512 kts 94°
2026-05-08 07:52 23.85904 64.50896 34797 ft 513 kts 94°
2026-05-08 07:52 23.85284 64.58686 34798 ft 513 kts 94°
2026-05-08 07:53 23.84677 64.66264 34803 ft 513 kts 94°
2026-05-08 07:53 23.84045 64.74112 34802 ft 514 kts 94°
2026-05-08 07:54 23.83419 64.81848 34802 ft 514 kts 94°
2026-05-08 07:54 23.83247 64.89647 34792 ft 513 kts 88°
2026-05-08 07:55 23.83339 64.97318 34803 ft 513 kts 88°
2026-05-08 07:55 23.83428 65.05004 34800 ft 513 kts 88°
2026-05-08 07:56 23.83482 65.12669 34805 ft 514 kts 88°
2026-05-08 07:56 23.83518 65.20422 34807 ft 514 kts 88°
2026-05-08 07:57 23.83548 65.28134 34806 ft 514 kts 88°
2026-05-08 07:57 23.83576 65.35862 34807 ft 515 kts 88°
2026-05-08 07:58 23.83602 65.43584 34809 ft 515 kts 88°
2026-05-08 07:58 23.83625 65.51458 34808 ft 515 kts 88°
2026-05-08 07:59 23.83643 65.59279 34811 ft 516 kts 88°
2026-05-08 07:59 23.83658 65.67116 34810 ft 516 kts 88°
2026-05-08 08:00 23.83668 65.74804 34807 ft 516 kts 88°
2026-05-08 08:00 23.83675 65.82655 34812 ft 516 kts 88°
2026-05-08 08:01 23.83677 65.90173 34819 ft 516 kts 88°
2026-05-08 08:01 23.83676 65.98063 34816 ft 516 kts 88°
2026-05-08 08:02 23.83671 66.05963 34818 ft 516 kts 88°
2026-05-08 08:02 23.83661 66.13733 34816 ft 516 kts 88°
2026-05-08 08:03 23.83648 66.21586 34815 ft 516 kts 88°
2026-05-08 08:03 23.83631 66.29289 34815 ft 516 kts 88°
2026-05-08 08:04 23.83611 66.37132 34819 ft 516 kts 88°
2026-05-08 08:04 23.83586 66.44980 34813 ft 516 kts 88°
2026-05-08 08:05 23.83557 66.52857 34819 ft 517 kts 88°
2026-05-08 08:05 23.83524 66.60576 34820 ft 517 kts 88°
2026-05-08 08:06 23.83487 66.68416 34820 ft 517 kts 88°
2026-05-08 08:06 23.83446 66.76355 34828 ft 518 kts 88°
2026-05-08 08:07 23.83401 66.84295 34825 ft 518 kts 88°
2026-05-08 08:07 23.83353 66.92080 34826 ft 518 kts 88°
2026-05-08 08:08 23.83415 66.99949 34829 ft 517 kts 83°
2026-05-08 08:08 23.84452 67.07618 34839 ft 513 kts 76°
2026-05-08 08:09 23.85774 67.15174 34826 ft 514 kts 76°
2026-05-08 08:09 23.87106 67.22942 34832 ft 514 kts 76°
2026-05-08 08:10 23.88363 67.30509 34831 ft 515 kts 76°
2026-05-08 08:10 23.89623 67.38190 34835 ft 515 kts 76°
2026-05-08 08:11 23.90897 67.45985 34833 ft 515 kts 76°
2026-05-08 08:11 23.92132 67.53549 34834 ft 516 kts 76°
2026-05-08 08:12 23.93388 67.61261 34836 ft 516 kts 76°
2026-05-08 08:12 23.94619 67.68839 34839 ft 516 kts 76°
2026-05-08 08:13 23.95854 67.76471 34834 ft 516 kts 76°
2026-05-08 08:13 23.97094 67.84158 34833 ft 516 kts 76°
2026-05-08 08:14 23.98333 67.91866 34835 ft 517 kts 76°
2026-05-08 08:14 23.99574 67.99611 34829 ft 517 kts 76°
2026-05-08 08:15 24.00810 68.07354 34834 ft 517 kts 76°
2026-05-08 08:15 24.02048 68.15129 34830 ft 518 kts 76°
2026-05-08 08:16 24.03260 68.22772 34825 ft 518 kts 76°
2026-05-08 08:16 24.04490 68.30550 34825 ft 518 kts 76°
2026-05-08 08:17 24.05709 68.38285 34826 ft 518 kts 76°
2026-05-08 08:17 24.06914 68.45959 34819 ft 519 kts 76°
2026-05-08 08:18 24.08068 68.53332 34819 ft 519 kts 76°
2026-05-08 08:18 24.09248 68.60900 34820 ft 519 kts 76°
2026-05-08 08:19 24.10467 68.68734 34821 ft 520 kts 76°
2026-05-08 08:19 24.11581 68.76599 34804 ft 522 kts 81°
2026-05-08 08:20 24.11719 68.84372 34821 ft 526 kts 88°
2026-05-08 08:20 24.11542 68.92078 34808 ft 527 kts 88°
2026-05-08 08:21 24.11373 68.99999 34808 ft 527 kts 88°
2026-05-08 08:21 24.11241 69.07828 34806 ft 527 kts 87°
2026-05-08 08:22 24.11121 69.15761 34803 ft 527 kts 87°
2026-05-08 08:22 24.10999 69.23579 34800 ft 527 kts 87°
2026-05-08 08:23 24.10867 69.31601 34799 ft 527 kts 87°
2026-05-08 08:23 24.10730 69.39578 34796 ft 527 kts 87°
2026-05-08 08:24 24.10588 69.47591 34794 ft 527 kts 87°
2026-05-08 08:24 24.10442 69.55634 34789 ft 527 kts 87°
2026-05-08 08:25 24.10292 69.63641 34794 ft 527 kts 87°
2026-05-08 08:25 24.10138 69.71663 34794 ft 528 kts 87°
2026-05-08 08:26 24.09984 69.79438 34795 ft 528 kts 87°
2026-05-08 08:26 24.09821 69.87481 34799 ft 528 kts 87°
2026-05-08 08:27 24.09654 69.95533 34801 ft 528 kts 87°
2026-05-08 08:27 24.09498 70.02833 34789 ft 529 kts 88°
2026-05-08 08:28 24.09322 70.10914 34792 ft 529 kts 87°
2026-05-08 08:28 24.09143 70.18929 34804 ft 529 kts 87°
2026-05-08 08:29 24.08966 70.26691 34797 ft 530 kts 88°
2026-05-08 08:29 24.08777 70.34807 34797 ft 530 kts 88°
2026-05-08 08:30 24.08585 70.42835 34803 ft 530 kts 87°
2026-05-08 08:30 24.08288 70.54923 34798 ft 531 kts 88°
2026-05-08 08:31 24.08085 70.62988 34798 ft 531 kts 88°
2026-05-08 08:31 24.07878 70.71035 34797 ft 532 kts 88°
2026-05-08 08:32 24.07667 70.79094 34795 ft 532 kts 88°
2026-05-08 08:32 24.07451 70.87185 34800 ft 532 kts 88°
2026-05-08 08:33 24.07231 70.95284 34800 ft 533 kts 88°
2026-05-08 08:33 24.07007 71.03325 34799 ft 533 kts 88°
2026-05-08 08:34 24.06779 71.11420 34795 ft 533 kts 88°
2026-05-08 08:34 24.06552 71.19373 34800 ft 533 kts 88°
2026-05-08 08:35 24.06312 71.27597 34797 ft 533 kts 88°
2026-05-08 08:35 24.06072 71.35720 34799 ft 534 kts 88°
2026-05-08 08:36 24.05827 71.43850 34793 ft 534 kts 88°
2026-05-08 08:36 24.05578 71.51965 34795 ft 534 kts 88°
2026-05-08 08:37 24.05324 71.60090 34799 ft 534 kts 88°
2026-05-08 08:37 24.05066 71.68219 34798 ft 535 kts 88°
2026-05-08 08:38 24.04804 71.76350 34796 ft 535 kts 88°
2026-05-08 08:38 24.04642 71.81297 34798 ft 535 kts 88°
2026-05-08 08:39 24.04522 71.84947 34795 ft 535 kts 88°
2026-05-08 08:39 24.04468 71.86560 34796 ft 535 kts 88°
2026-05-08 08:40 24.04213 71.94192 34795 ft 535 kts 88°
2026-05-08 08:40 24.03939 72.02266 34798 ft 535 kts 88°
2026-05-08 08:41 24.03658 72.10409 34795 ft 535 kts 88°
2026-05-08 08:41 24.03373 72.18549 34798 ft 535 kts 88°
2026-05-08 08:42 24.03084 72.26681 34803 ft 536 kts 88°
2026-05-08 08:42 24.02792 72.34776 34800 ft 536 kts 88°
2026-05-08 08:43 24.02494 72.42920 34804 ft 536 kts 88°
2026-05-08 08:43 24.02192 72.51062 34805 ft 536 kts 88°
2026-05-08 08:44 24.01885 72.59222 34806 ft 537 kts 88°
2026-05-08 08:44 24.01593 72.67330 34808 ft 536 kts 86°
2026-05-08 08:45 24.01589 72.71410 34920 ft 538 kts 85°
2026-05-08 08:45 24.01643 72.75500 35224 ft 537 kts 85°
2026-05-08 08:45 24.01718 72.79571 35581 ft 534 kts 85°
2026-05-08 08:45 24.01795 72.83629 35923 ft 533 kts 85°
2026-05-08 08:46 24.01866 72.87683 36240 ft 532 kts 85°
2026-05-08 08:46 24.01926 72.91712 36542 ft 531 kts 86°
2026-05-08 08:46 24.01979 72.95755 36747 ft 532 kts 86°
2026-05-08 08:46 24.02028 72.99763 36798 ft 534 kts 86°
2026-05-08 08:47 24.02117 73.07889 36806 ft 533 kts 86°
2026-05-08 08:47 24.02202 73.15964 36817 ft 530 kts 86°
2026-05-08 08:48 24.02286 73.24022 36827 ft 529 kts 86°
2026-05-08 08:48 24.02367 73.32079 36828 ft 530 kts 86°
2026-05-08 08:49 24.02407 73.36108 36832 ft 533 kts 86°
2026-05-08 08:49 24.02420 73.37493 36827 ft 533 kts 86°
2026-05-08 08:50 24.02492 73.45627 36830 ft 536 kts 86°
2026-05-08 08:50 24.02561 73.53781 36833 ft 537 kts 86°
2026-05-08 08:51 24.02626 73.61953 36827 ft 537 kts 86°
2026-05-08 08:51 24.02667 73.67410 36815 ft 537 kts 86°
2026-05-08 08:52 24.02724 73.75565 36809 ft 535 kts 86°
2026-05-08 08:52 24.02774 73.83702 36829 ft 534 kts 86°
2026-05-08 08:53 24.02819 73.91823 36823 ft 534 kts 86°
2026-05-08 08:53 24.02862 73.99900 36822 ft 534 kts 86°
2026-05-08 08:54 24.02900 74.08034 36823 ft 535 kts 86°
2026-05-08 08:54 24.02987 74.16168 36825 ft 535 kts 86°
2026-05-08 08:55 24.03112 74.24302 36815 ft 535 kts 86°
2026-05-08 08:55 24.03228 74.32450 36823 ft 536 kts 86°
2026-05-08 08:56 24.03328 74.40547 36827 ft 536 kts 86°
2026-05-08 08:56 24.03424 74.48701 36834 ft 537 kts 86°
2026-05-08 08:57 24.03516 74.56857 36836 ft 537 kts 86°
2026-05-08 08:57 24.03605 74.65035 36845 ft 537 kts 86°
2026-05-08 08:58 24.03369 74.73205 36841 ft 540 kts 95°
2026-05-08 08:58 24.01921 74.81220 36842 ft 542 kts 105°
2026-05-08 08:59 23.99671 74.89103 36848 ft 542 kts 107°
2026-05-08 08:59 23.97382 74.96958 36844 ft 543 kts 107°
2026-05-08 09:00 23.95133 75.04841 36833 ft 543 kts 106°
2026-05-08 09:00 23.92926 75.12670 36834 ft 543 kts 107°
2026-05-08 09:01 23.90703 75.20552 36832 ft 543 kts 107°
2026-05-08 09:01 23.88470 75.28440 36828 ft 543 kts 107°
2026-05-08 09:02 23.86247 75.36266 36825 ft 543 kts 107°
2026-05-08 09:02 23.84010 75.44122 36825 ft 542 kts 107°
2026-05-08 09:03 23.81766 75.51988 36823 ft 542 kts 107°
2026-05-08 09:03 23.79901 75.58515 36826 ft 542 kts 107°
2026-05-08 09:04 23.77651 75.66372 36824 ft 542 kts 107°
2026-05-08 09:04 23.75401 75.74216 36830 ft 542 kts 107°
2026-05-08 09:05 23.73145 75.82060 36833 ft 542 kts 107°
2026-05-08 09:05 23.70901 75.89850 36832 ft 542 kts 107°
2026-05-08 09:06 23.68638 75.97693 36833 ft 542 kts 108°
2026-05-08 09:06 23.66364 76.05526 36830 ft 542 kts 108°
2026-05-08 09:07 23.64072 76.13351 36836 ft 542 kts 108°
2026-05-08 09:07 23.61792 76.21120 36837 ft 542 kts 108°
2026-05-08 09:08 23.59493 76.28950 36840 ft 542 kts 108°
2026-05-08 09:08 23.57193 76.36771 36836 ft 542 kts 108°
2026-05-08 09:09 23.54892 76.44581 36840 ft 542 kts 108°
2026-05-08 09:09 23.52584 76.52399 36840 ft 541 kts 108°
2026-05-08 09:10 23.50290 76.60152 36842 ft 541 kts 108°
2026-05-08 09:10 23.47974 76.67961 36847 ft 541 kts 108°
2026-05-08 09:11 23.45661 76.75749 36849 ft 541 kts 108°
2026-05-08 09:11 23.43337 76.83555 36846 ft 541 kts 109°
2026-05-08 09:12 23.41029 76.91292 36849 ft 541 kts 109°
2026-05-08 09:12 23.38703 76.99075 36852 ft 541 kts 109°
2026-05-08 09:13 23.36374 77.06853 36849 ft 541 kts 109°
2026-05-08 09:13 23.34038 77.14637 36856 ft 540 kts 109°
2026-05-08 09:14 23.31719 77.22352 36855 ft 540 kts 109°
2026-05-08 09:14 23.29380 77.30119 36858 ft 540 kts 109°
2026-05-08 09:15 23.26993 77.37850 36858 ft 540 kts 111°
2026-05-08 09:15 23.24419 77.45515 36854 ft 539 kts 111°
2026-05-08 09:16 23.21826 77.53109 36857 ft 539 kts 111°
2026-05-08 09:16 23.19238 77.60762 36845 ft 539 kts 111°
2026-05-08 09:17 23.16671 77.68404 36850 ft 539 kts 111°
2026-05-08 09:17 23.14097 77.76067 36847 ft 539 kts 111°
2026-05-08 09:18 23.11520 77.83720 36846 ft 539 kts 111°